�������C�����ː����j�^�v���󋵏��
Date,Time,Cs137(Bq/L),Cs134(Bq/L),�S��(Bq/L)
2020/06/28,00:00,-,-,10
2020/06/28,00:10,-,-,9.0
2020/06/28,00:20,-,-,11
2020/06/28,00:30,-,-,10
2020/06/28,00:40,-,-,10
2020/06/28,00:50,-,-,10
2020/06/28,01:00,-,-,9.0
2020/06/28,01:10,-,-,10
2020/06/28,01:20,-,-,9.7
2020/06/28,01:30,-,-,12
2020/06/28,01:40,-,-,12
2020/06/28,01:50,-,-,12
2020/06/28,02:00,-,-,14
2020/06/28,02:10,-,-,16
2020/06/28,02:20,-,-,15
2020/06/28,02:30,-,-,11
2020/06/28,02:40,-,-,12
2020/06/28,02:50,-,-,11
2020/06/28,03:00,-,-,11
2020/06/28,03:10,-,-,ND
2020/06/28,03:20,-,-,ND
2020/06/28,03:30,-,-,11
2020/06/28,03:40,-,-,11
2020/06/28,03:50,-,-,11
2020/06/28,04:00,-,-,9.6
2020/06/28,04:10,-,-,12
2020/06/28,04:20,-,-,12
2020/06/28,04:30,-,-,13
2020/06/28,04:40,-,-,14
2020/06/28,04:50,-,-,14
2020/06/28,05:00,-,-,14
2020/06/28,05:10,-,-,12
2020/06/28,05:20,-,-,13
2020/06/28,05:30,-,-,13
2020/06/28,05:40,-,-,12
2020/06/28,05:50,-,-,13
2020/06/28,06:00,-,-,14
2020/06/28,06:10,-,-,14
2020/06/28,06:20,-,-,15
2020/06/28,06:30,-,-,11
2020/06/28,06:40,-,-,11
2020/06/28,06:50,-,-,12
2020/06/28,07:00,-,-,10
2020/06/28,07:10,-,-,12
2020/06/28,07:20,-,-,12
2020/06/28,07:30,-,-,15
2020/06/28,07:40,-,-,12
2020/06/28,07:50,-,-,14
2020/06/28,08:00,-,-,14
2020/06/28,08:10,-,-,12
2020/06/28,08:20,-,-,14
2020/06/28,08:30,-,-,13
2020/06/28,08:40,-,-,16
2020/06/28,08:50,-,-,13
2020/06/28,09:00,-,-,15
2020/06/28,09:10,-,-,16
2020/06/28,09:20,-,-,16
2020/06/28,09:30,-,-,17
2020/06/28,09:40,-,-,17
2020/06/28,09:50,-,-,18
2020/06/28,10:00,-,-,17
2020/06/28,10:10,-,-,15
2020/06/28,10:20,-,-,13
2020/06/28,10:30,-,-,11
2020/06/28,10:40,-,-,12
2020/06/28,10:50,-,-,9.5
2020/06/28,11:00,-,-,10
2020/06/28,11:10,-,-,11
2020/06/28,11:20,-,-,10
2020/06/28,11:30,-,-,10
2020/06/28,11:40,-,-,11
2020/06/28,11:50,-,-,16
2020/06/28,12:00,-,-,16
2020/06/28,12:10,-,-,16
2020/06/28,12:20,-,-,17
2020/06/28,12:30,-,-,17
2020/06/28,12:40,-,-,17
2020/06/28,12:50,-,-,13
2020/06/28,13:00,-,-,12
2020/06/28,13:10,-,-,11
2020/06/28,13:20,-,-,9.9
2020/06/28,13:30,-,-,9.5
2020/06/28,13:40,-,-,ND
2020/06/28,13:50,-,-,11
2020/06/28,14:00,-,-,11
2020/06/28,14:10,-,-,14
2020/06/28,14:20,-,-,15
2020/06/28,14:30,-,-,18
2020/06/28,14:40,-,-,20
2020/06/28,14:50,-,-,18
2020/06/28,15:00,-,-,19
2020/06/28,15:10,-,-,18
2020/06/28,15:20,-,-,17
2020/06/28,15:30,-,-,18
2020/06/28,15:40,-,-,18
2020/06/28,15:50,-,-,19
2020/06/28,16:00,-,-,18
2020/06/28,16:10,-,-,20
2020/06/28,16:20,-,-,21
2020/06/28,16:30,-,-,20
2020/06/28,16:40,-,-,20
2020/06/28,16:50,-,-,17
2020/06/28,17:00,-,-,18
2020/06/28,17:10,-,-,18
2020/06/28,17:20,-,-,19
2020/06/28,17:30,-,-,19
2020/06/28,17:40,-,-,18
2020/06/28,17:50,-,-,19
2020/06/28,18:00,-,-,19
2020/06/28,18:10,-,-,17
2020/06/28,18:20,-,-,15
2020/06/28,18:30,-,-,15
2020/06/28,18:40,-,-,14
2020/06/28,18:50,-,-,15
2020/06/28,19:00,-,-,16
2020/06/28,19:10,-,-,12
2020/06/28,19:20,-,-,14
2020/06/28,19:30,-,-,14
2020/06/28,19:40,-,-,18
2020/06/28,19:50,-,-,16
2020/06/28,20:00,-,-,17
2020/06/28,20:10,-,-,20
2020/06/28,20:20,-,-,19
2020/06/28,20:30,-,-,20
2020/06/28,20:40,-,-,15
2020/06/28,20:50,-,-,16
2020/06/28,21:00,-,-,13
2020/06/28,21:10,-,-,15
2020/06/28,21:20,-,-,13
2020/06/28,21:30,-,-,13
2020/06/28,21:40,-,-,16
2020/06/28,21:50,-,-,14
2020/06/28,22:00,-,-,16
2020/06/28,22:10,-,-,13
2020/06/28,22:20,-,-,15
2020/06/28,22:30,-,-,14
2020/06/28,22:40,-,-,14
2020/06/28,22:50,-,-,17
2020/06/28,23:00,-,-,16
2020/06/28,23:10,-,-,17
2020/06/28,23:20,-,-,15
2020/06/28,23:30,-,-,15
2020/06/28,23:40,-,-,14
2020/06/28,23:50,-,-,12
